Location: Newark
(25.6108°S, 54.5803°W)
Time: 20:51:19
(UTC+00:00)

Courier 1B - Pass Details

Date: 03 November 2020
Orbit: 962 x 1209 km, 28.3° (Epoch: 24 November)

Event Time Altitude Azimuth Distance (km) Brightness Sun altitude
Rises 07:06:50 0° 267° (W) 4,111 - -21.7°
Reaches altitude 10° 07:10:25 10° 281° (W) 3,149 - -21.0°
Maximum altitude 07:16:11 22° 328° (NNW) 2,336 - -19.9°
Exits shadow 07:16:52 22° 336° (NNW) 2,346 9.0 -19.7°
Drops below altitude 10° 07:21:53 10° 16° (NNE) 3,094 10.0 -18.8°
Sets 07:25:23 0° 31° (NNE) 4,022 10.8 -18.1°
